Location: Praha
(50.0830°N, 14.4670°E)
Time: 18:58:41
(UTC+02:00)

ISS - Pass Details

Date: 12 July 2021
Orbit: 419 x 421 km, 51.6° (Epoch: 02 August)

Event Time Altitude Azimuth Distance (km) Brightness Sun altitude
Rises 23:41:00 0° 234° (SW) 2,361 -0.1 -15.5°
Reaches altitude 10° 23:43:07 10° 229° (SW) 1,499 -1.2 -15.7°
Maximum altitude 23:46:23 49° 153° (SSE) 554 -3.6 -15.8°
Drops below altitude 10° 23:49:39 10° 78° (ENE) 1,505 -1.0 -16.0°
Sets 23:51:48 0° 73° (ENE) 2,371 0.1 -16.1°
